Location: Unspecified
(47.1121°N, 116.3927°W)
Time: 23:08:27
(UTC-08:00)

Okean 3 - Visible Passes

Search period start: 17 February 2018 00:00
Search period end: 27 February 2018 00:00
Orbit: 576 x 603 km, 82.5° (Epoch: 18 February)

Date Brightness Start Highest point End Pass type
(mag) Time Alt. Az. Time Alt. Az. Time Alt. Az.
17 Feb 3.3 18:50:38 10° N 18:54:50 79° E 18:59:00 10° SSE visible
18 Feb 3.7 18:58:47 10° NNW 19:02:57 70° W 19:07:05 10° S visible
19 Feb 4.5 19:07:01 10° NNW 19:11:02 46° W 19:15:01 10° SSW visible
20 Feb 5.3 19:15:21 10° NNW 19:19:03 31° W 19:22:45 10° SSW visible
21 Feb 4.0 17:46:10 10° N 17:50:01 34° ENE 17:53:50 10° SE visible
21 Feb 6.0 19:23:49 10° NW 19:27:04 22° W 19:30:17 10° SW visible
22 Feb 3.6 17:54:07 10° N 17:58:12 50° ENE 18:02:15 10° SSE visible
22 Feb 6.6 19:32:32 10° NW 19:35:01 16° W 19:37:30 10° WSW visible
23 Feb 3.4 18:02:10 10° N 18:06:21 75° E 18:10:32 10° SSE visible
23 Feb 7.0 19:42:02 10° WNW 19:42:57 11° W 19:43:51 10° W visible
24 Feb 3.7 18:10:17 10° NNW 18:14:28 74° W 18:18:38 10° S visible
25 Feb 4.5 18:18:30 10° NNW 18:22:33 49° W 18:26:35 10° SSW visible
26 Feb 5.4 18:26:49 10° NNW 18:30:36 33° W 18:34:21 10° SSW visible
